1514714400.91,61630,6.81,72738.0,-3.35,-4.89,-4.73,0,*52
1514714402.13,61631,6.81,72742.8,-3.35,-4.99,-4.89,0,*57
1514714403.39,61632,6.81,72742.3,-3.35,-5.15,-4.89,0,*51
1514714404.65,61633,6.81,72742.3,-3.35,-5.07,-5.07,0,*54
1514714405.93,61634,6.81,72738.0,-3.33,-5.31,-5.15,0,*53
1514714407.15,61635,6.81,72742.3,-3.33,-5.43,-5.43,0,*54
1514714408.38,61636,6.81,72748.3,-3.33,-5.55,-5.39,0,*5D
1514714409.61,61637,6.81,72744.5,-3.37,-5.47,-5.47,0,*52
1514714410.81,61638,6.81,72748.0,-3.35,-5.43,-5.43,0,*5F
1514714412.07,61639,6.81,72746.3,-3.33,-5.69,-5.55,0,*57
1514714413.34,61640,6.81,72742.8,-3.33,-5.81,-5.77,0,*5F
1514714414.59,61641,6.81,72736.8,-3.35,-5.77,-5.77,0,*51
1514714415.79,61642,6.81,72734.8,-3.39,-5.47,-5.43,0,*5A
1514714417.01,61643,6.81,72732.8,-3.37,-5.47,-5.47,0,*51
1514714418.27,61644,6.81,72732.8,-3.35,-5.81,-5.81,0,*54
1514714419.55,61645,6.81,72722.8,-3.37,-5.85,-5.81,0,*53
1514714420.82,61646,6.81,72722.8,-3.37,-5.81,-5.73,0,*59
1514714422.06,61647,6.81,72720.8,-3.37,-5.55,-5.55,0,*55
1514714423.34,61648,6.81,72714.0,-3.37,-5.23,-5.19,0,*53
1514714424.62,61649,6.81,72700.5,-3.37,-5.19,-5.19,0,*5B
1514714425.82,61650,6.81,72728.3,-3.39,-5.35,-5.35,0,*5D
1514714427.1,61651,6.81,72726.0,-3.37,-5.31,-5.31,0,*52
1514714428.32,61652,6.81,72724.5,-3.37,-5.35,-5.35,0,*51
1514714429.6,61653,6.81,72726.8,-3.37,-5.19,-5.07,0,*5F
1514714430.88,61654,6.81,72724.8,-3.37,-5.03,-4.93,0,*5F
1514714432.16,61655,6.81,72732.3,-3.37,-5.03,-4.93,0,*5E
1514714433.44,61656,6.81,72738.8,-3.37,-5.03,-4.93,0,*5D
1514714434.69,61657,6.81,72736.8,-3.35,-5.19,-5.07,0,*59
1514714435.98,61658,6.81,72732.8,-3.33,-5.15,-5.07,0,*5C
1514714437.26,61659,6.81,72742.0,-3.37,-5.07,-4.93,0,*56
1514714438.51,61660,6.81,72746.8,-3.35,-5.19,-5.03,0,*59
1514714439.74,61661,6.81,72748.8,-3.35,-4.99,-4.89,0,*52
1514714440.93,61662,6.81,72752.8,-3.35,-5.43,-5.39,0,*5D
1514714442.13,61663,6.81,72754.8,-3.35,-5.43,-5.39,0,*5C
1514714443.33,61664,6.81,72756.3,-3.35,-5.43,-5.39,0,*5B
1514714444.54,61665,6.81,72746.5,-3.35,-5.55,-5.51,0,*53
1514714445.75,61666,6.81,72728.3,-3.35,-5.55,-5.55,0,*54
1514714447.03,61667,6.81,72718.8,-3.37,-5.03,-4.93,0,*5F
1514714448.29,61668,6.81,72714.5,-3.35,-5.03,-4.89,0,*59
1514714449.54,61669,6.81,72722.3,-3.35,-4.89,-4.89,0,*5B
1514714450.79,61670,6.81,72718.5,-3.35,-4.89,-4.77,0,*52
1514714452.07,61671,6.81,72720.3,-3.33,-4.89,-4.85,0,*58
1514714453.35,61672,6.81,72718.5,-3.33,-5.07,-4.89,0,*50
1514714454.6,61673,6.81,72724.0,-3.35,-4.89,-4.89,0,*50
1514714455.86,61674,6.81,72734.5,-3.35,-4.89,-4.89,0,*57
1514714457.1,61675,6.81,72736.0,-3.33,-4.99,-4.85,0,*5D
1514714458.33,61676,6.81,72734.5,-3.35,-4.99,-4.89,0,*54
1514714459.59,61677,6.81,72730.0,-3.29,-4.93,-4.85,0,*5E
1514714460.84,61678,6.81,72724.0,-3.33,-5.07,-4.99,0,*5B
1514714462.13,61679,6.81,72724.8,-3.33,-5.15,-5.07,0,*5F
1514714463.38,61680,6.81,72730.5,-3.33,-4.99,-4.89,0,*5B
1514714464.65,61681,6.81,72718.0,-3.33,-4.89,-4.89,0,*5B
1514714465.92,61682,6.81,72702.3,-3.29,-4.85,-4.81,0,*57
1514714467.17,61683,6.81,72704.8,-3.27,-5.15,-5.15,0,*5C
1514714468.45,61684,6.81,72708.5,-3.29,-5.27,-5.23,0,*51
1514714469.73,61685,6.81,72712.3,-3.29,-5.15,-5.23,0,*51
1514714470.98,61686,6.81,72736.8,-3.29,-5.35,-5.27,0,*54
1514714472.23,61687,6.81,72736.3,-3.27,-5.03,-4.93,0,*50
1514714473.51,61688,6.81,72734.3,-3.29,-5.65,-5.61,0,*5D
1514714474.76,61689,6.81,72728.8,-3.29,-5.35,-5.23,0,*5F
1514714476.01,61690,6.81,72720.8,-3.29,-5.35,-5.23,0,*57
1514714477.23,61691,6.81,72730.0,-3.29,-5.39,-5.35,0,*5D
1514714478.51,61692,6.81,72730.5,-3.29,-5.11,-5.03,0,*51
1514714479.76,61693,6.81,72738.0,-3.29,-5.03,-4.99,0,*51
1514714480.97,61694,6.81,72742.5,-3.29,-4.99,-4.99,0,*54
1514714482.22,61695,6.81,72752.5,-3.29,-5.35,-5.23,0,*52
1514714483.48,61696,6.81,72754.8,-3.29,-5.35,-5.27,0,*55
1514714484.72,61697,6.81,72752.5,-3.29,-5.61,-5.51,0,*54
1514714485.95,61698,6.81,72744.8,-3.29,-5.51,-5.47,0,*5F
1514714487.21,61699,6.81,72744.3,-3.29,-5.73,-5.65,0,*5E
1514714488.47,61700,6.81,72736.5,-3.35,-5.85,-5.81,0,*51
1514714489.73,61701,6.81,72736.0,-3.35,-5.81,-5.81,0,*54
1514714490.98,61702,6.81,72736.3,-3.35,-5.69,-5.77,0,*58
1514714492.17,61703,6.81,72736.0,-3.35,-6.05,-6.05,0,*56
1514714493.37,61704,6.81,72730.5,-3.35,-6.05,-6.09,0,*5D
1514714494.57,61705,6.81,72718.8,-3.35,-6.09,-5.97,0,*54
1514714495.85,61706,6.81,72712.8,-3.37,-5.85,-5.81,0,*55
1514714497.1,61707,6.81,72714.5,-3.39,-5.81,-5.73,0,*53
1514714498.37,61708,6.81,72708.0,-3.37,-5.81,-5.73,0,*52
1514714499.62,61709,6.81,72714.3,-3.39,-5.69,-5.69,0,*50
1514714500.87,61710,6.81,72722.0,-3.39,-5.69,-5.69,0,*58
1514714502.11,61711,6.81,72722.0,-3.39,-5.73,-5.69,0,*52
1514714503.35,61712,6.81,72722.8,-3.39,-5.81,-5.73,0,*57
1514714504.6,61713,6.81,72716.8,-3.39,-5.69,-5.61,0,*53
1514714505.87,61714,6.81,72720.8,-3.43,-5.73,-5.65,0,*56
1514714507.13,61715,6.81,72730.0,-3.43,-5.73,-5.69,0,*5B
1514714508.4,61716,6.81,72734.8,-3.43,-5.77,-5.73,0,*57
1514714509.67,61717,6.81,72734.8,-3.43,-5.61,-5.65,0,*56
1514714510.92,61718,6.81,72728.3,-3.45,-5.69,-5.69,0,*5B
1514714512.19,61719,6.81,72726.8,-3.43,-5.89,-5.93,0,*57
1514714513.47,61720,6.81,72722.8,-3.43,-5.85,-5.85,0,*56
1514714514.72,61721,6.81,72720.8,-3.45,-5.81,-5.69,0,*57
1514714515.94,61722,6.81,72728.8,-3.45,-5.69,-5.51,0,*59
1514714517.16,61723,6.81,72726.0,-3.43,-5.47,-5.35,0,*50
1514714518.41,61724,6.81,72728.3,-3.45,-5.27,-5.19,0,*59
1514714519.63,61725,6.81,72722.0,-3.43,-5.47,-5.39,0,*5A
1514714520.85,61726,6.81,72724.0,-3.43,-5.39,-5.35,0,*5C
1514714522.13,61727,6.81,72728.8,-3.43,-5.27,-5.23,0,*55
1514714523.32,61728,6.81,72730.3,-3.45,-5.51,-5.39,0,*56
1514714524.57,61729,6.81,72734.8,-3.43,-5.35,-5.27,0,*5C
1514714525.82,61730,6.81,72734.5,-3.43,-5.27,-5.35,0,*54
1514714527.06,61731,6.81,72738.8,-3.45,-5.81,-5.81,0,*50
1514714528.31,61732,6.81,72738.0,-3.45,-5.89,-5.77,0,*52
1514714529.55,61733,6.81,72736.0,-3.45,-5.89,-5.77,0,*53
1514714530.82,61734,6.81,72744.5,-3.43,-5.85,-5.73,0,*5A
1514714532.09,61735,6.81,72738.5,-3.47,-5.69,-5.65,0,*5A
1514714533.34,61736,6.81,72738.5,-3.47,-5.65,-5.55,0,*56
1514714534.61,61737,6.81,72742.8,-3.47,-5.27,-5.19,0,*59
1514714535.85,61738,6.81,72738.5,-3.45,-5.11,-5.11,0,*59
1514714537.1,61739,6.81,72738.5,-3.45,-5.31,-5.19,0,*52
1514714538.32,61740,6.81,72742.8,-3.45,-5.43,-5.31,0,*53
1514714539.57,61741,6.81,72740.8,-3.45,-5.27,-5.19,0,*5A
1514714540.84,61742,6.81,72736.0,-3.47,-5.15,-5.03,0,*51
1514714542.06,61743,6.81,72734.8,-3.45,-4.77,-4.65,0,*56
1514714543.32,61744,6.81,72734.8,-3.43,-4.73,-4.73,0,*54
1514714544.59,61745,6.81,72738.3,-3.43,-4.81,-4.69,0,*53
1514714545.83,61746,6.81,72744.5,-3.45,-4.77,-4.73,0,*54
1514714547.07,61747,6.81,72742.3,-3.43,-4.73,-4.61,0,*54
1514714548.32,61748,6.81,72738.3,-3.39,-5.03,-4.89,0,*56
1514714549.56,61749,6.81,72736.8,-3.39,-4.93,-4.89,0,*5F
1514714550.81,61750,6.81,72734.8,-3.39,-4.89,-4.69,0,*52
1514714552.08,61751,6.81,72732.0,-3.37,-4.93,-4.89,0,*58
1514714553.36,61752,6.81,72732.0,-3.37,-5.03,-5.03,0,*50
1514714554.63,61753,6.81,72732.5,-3.37,-4.89,-4.77,0,*50
1514714555.85,61754,6.81,72732.8,-3.39,-4.69,-4.57,0,*55
1514714557.08,61755,6.81,72736.3,-3.37,-4.65,-4.57,0,*56
1514714558.34,61756,6.81,72734.0,-3.37,-4.77,-4.69,0,*5B
1514714559.57,61757,6.81,72738.3,-3.35,-4.73,-4.65,0,*50
1514714560.81,61758,6.81,72738.8,-3.35,-4.77,-4.73,0,*5C
1514714562.06,61759,6.81,72740.5,-3.35,-4.85,-4.85,0,*59
1514714563.31,61760,6.81,72746.5,-3.35,-4.85,-4.85,0,*53
1514714564.58,61761,6.81,72744.8,-3.33,-4.89,-4.89,0,*54
1514714565.86,61762,6.81,72748.3,-3.33,-4.89,-4.85,0,*5B
1514714567.11,61763,6.81,72756.8,-3.35,-4.89,-4.89,0,*50
1514714568.38,61764,6.81,72764.5,-3.29,-4.85,-4.81,0,*5E
1514714569.67,61765,6.81,72752.0,-3.33,-5.07,-5.03,0,*54
1514714570.95,61766,6.81,72756.5,-3.33,-5.31,-5.19,0,*59
1514714572.2,61767,6.81,72760.0,-3.35,-5.69,-5.69,0,*54
1514714573.45,61768,6.81,72748.8,-3.35,-5.77,-5.65,0,*58
1514714574.71,61769,6.81,72726.0,-3.35,-5.81,-5.81,0,*5A
1514714575.99,61770,6.81,72728.3,-3.33,-5.93,-5.81,0,*57
1514714577.25,61771,6.81,72732.3,-3.35,-5.85,-5.93,0,*54
1514714578.53,61772,6.81,72732.5,-3.37,-5.81,-5.69,0,*54
1514714579.77,61773,6.81,72726.8,-3.39,-5.81,-5.73,0,*50
1514714581.05,61774,6.81,72724.0,-3.37,-5.85,-5.73,0,*5D
1514714582.3,61775,6.81,72728.0,-3.39,-5.85,-5.85,0,*5B
1514714583.5,61776,6.81,72722.0,-3.39,-6.13,-6.01,0,*5B
1514714584.69,61777,6.81,72716.8,-3.39,-6.09,-6.09,0,*59
1514714585.88,61778,6.81,72716.0,-3.39,-6.13,-6.13,0,*56
1514714587.08,61779,6.81,72720.0,-3.39,-6.13,-6.09,0,*5C
1514714588.28,61780,6.81,72716.8,-3.45,-6.43,-6.31,0,*5F
1514714589.5,61781,6.81,72722.8,-3.45,-6.19,-6.09,0,*5A
1514714590.73,61782,6.81,72706.5,-3.45,-6.23,-6.23,0,*58
1514714591.95,61783,6.81,72726.0,-3.47,-5.97,-5.97,0,*5B
1514714593.19,61784,6.81,72732.3,-3.49,-6.23,-6.23,0,*52
1514714594.41,61785,6.81,72738.5,-3.49,-6.13,-6.23,0,*50
1514714595.63,61786,6.81,72738.8,-3.49,-5.97,-5.93,0,*54
1514714596.89,61787,6.81,72734.0,-3.51,-5.97,-5.93,0,*5C
1514714598.16,61788,6.81,72732.0,-3.51,-5.93,-5.81,0,*54
1514714599.44,61789,6.81,72732.8,-3.51,-5.69,-5.73,0,*5D
1514714600.69,61790,6.81,72730.5,-3.53,-5.77,-5.77,0,*5C
1514714601.94,61791,6.81,72730.5,-3.51,-5.97,-5.85,0,*5C
1514714603.19,61792,6.81,72736.0,-3.51,-5.69,-5.55,0,*53
1514714604.44,61793,6.81,72742.5,-3.53,-5.73,-5.65,0,*58
1514714605.72,61794,6.81,72742.0,-3.51,-5.69,-5.61,0,*52
1514714606.95,61795,6.81,72742.3,-3.53,-5.97,-5.89,0,*56
1514714608.14,61796,6.81,72732.8,-3.53,-6.05,-6.01,0,*5E
1514714609.36,61797,6.81,72710.8,-3.51,-6.01,-5.97,0,*55
1514714610.59,61798,6.81,72712.5,-3.53,-6.19,-6.13,0,*5E
1514714611.86,61799,6.81,72718.5,-3.55,-6.27,-6.27,0,*53
1514714613.07,61800,6.81,72714.8,-3.55,-6.13,-6.05,0,*5B
1514714614.27,61801,6.81,72708.5,-3.57,-6.05,-6.05,0,*5F
1514714615.47,61802,6.81,72708.3,-3.57,-6.01,-6.01,0,*5C
1514714616.69,61803,6.81,72710.3,-3.55,-6.01,-5.97,0,*53
1514714617.96,61804,6.81,72708.3,-3.55,-5.85,-5.81,0,*5C
1514714619.23,61805,6.81,72714.0,-3.55,-5.77,-5.73,0,*5D
1514714620.5,61806,6.81,72718.5,-3.55,-5.77,-5.73,0,*5E
1514714621.75,61807,6.81,72716.5,-3.57,-5.81,-5.77,0,*50
1514714623.0,61808,6.81,72710.8,-3.57,-5.89,-5.77,0,*57
1514714624.2,61809,6.81,72708.3,-3.57,-6.01,-6.01,0,*57
1514714625.42,61810,6.81,72708.3,-3.59,-6.09,-6.05,0,*5D
1514714626.67,61811,6.81,72712.8,-3.59,-6.23,-6.31,0,*53
1514714627.92,61812,6.81,72716.3,-3.61,-6.23,-6.27,0,*5C
1514714629.11,61813,6.81,72720.3,-3.61,-6.05,-5.97,0,*51
1514714630.39,61814,6.81,72724.3,-3.59,-5.69,-5.65,0,*59
1514714631.62,61815,6.81,72726.0,-3.61,-5.93,-5.97,0,*5B
1514714632.86,61816,6.81,72726.0,-3.61,-6.23,-6.23,0,*5C
1514714634.11,61817,6.81,72726.3,-3.65,-6.27,-6.19,0,*54
1514714635.31,61818,6.81,72724.0,-3.65,-6.13,-6.09,0,*5D
1514714636.51,61819,6.81,72728.5,-3.65,-6.09,-6.09,0,*57
1514714637.74,61820,6.81,72732.0,-3.67,-6.01,-6.01,0,*5F
1514714638.96,61821,6.81,72732.3,-3.67,-6.01,-5.97,0,*52
1514714640.24,61822,6.81,72734.8,-3.67,-5.77,-5.77,0,*5D
1514714641.49,61823,6.81,72736.0,-3.65,-5.85,-5.77,0,*53
1514714642.74,61824,6.81,72734.5,-3.65,-5.89,-5.77,0,*58
1514714644.01,61825,6.81,72734.8,-3.67,-5.73,-5.73,0,*5A
1514714645.21,61826,6.81,72734.8,-3.65,-5.51,-5.47,0,*5C
1514714646.5,61827,6.81,72736.5,-3.67,-5.31,-5.23,0,*5B
1514714647.76,61828,6.81,72736.3,-3.65,-5.23,-5.19,0,*5C
1514714649.01,61829,6.81,72740.8,-3.65,-5.19,-5.19,0,*54
1514714650.22,61830,6.81,72742.3,-3.65,-5.47,-5.39,0,*55
1514714651.45,61831,6.81,72734.8,-3.65,-5.97,-5.89,0,*52
1514714652.7,61832,6.81,72728.3,-3.65,-5.89,-5.85,0,*52
1514714653.96,61833,6.81,72730.3,-3.61,-5.69,-5.69,0,*5B
1514714655.16,61834,6.81,72732.3,-3.61,-5.47,-5.43,0,*58
1514714656.36,61835,6.81,72732.5,-3.65,-5.35,-5.35,0,*59
1514714657.61,61836,6.81,72732.8,-3.65,-5.23,-5.19,0,*53
1514714658.87,61837,6.81,72734.5,-3.61,-5.27,-5.19,0,*52
1514714660.12,61838,6.81,72734.0,-3.61,-5.19,-5.19,0,*50
1514714661.35,61839,6.81,72730.5,-3.61,-5.61,-5.55,0,*56
1514714662.58,61840,6.81,72730.3,-3.61,-5.43,-5.31,0,*5A
1514714663.84,61841,6.81,72722.8,-3.61,-5.31,-5.27,0,*59
1514714665.12,61842,6.81,72722.3,-3.59,-5.15,-5.15,0,*56
1514714666.37,61843,6.81,72722.3,-3.59,-5.39,-5.31,0,*5F
1514714667.59,61844,6.81,72716.0,-3.59,-5.51,-5.43,0,*53
1514714668.79,61845,6.81,72720.5,-3.61,-5.43,-5.35,0,*5B
1514714670.07,61846,6.81,72718.8,-3.59,-5.15,-5.15,0,*52
1514714671.31,61847,6.81,72722.3,-3.59,-5.11,-4.99,0,*52
1514714672.59,61848,6.81,72718.5,-3.59,-5.11,-5.11,0,*5C
1514714673.86,61849,6.81,72716.8,-3.59,-5.11,-5.03,0,*5E
1514714675.14,61850,6.81,72720.0,-3.59,-5.11,-5.03,0,*56
1514714676.39,61851,6.81,72720.8,-3.57,-5.15,-5.11,0,*5E
1514714677.65,61852,6.81,72728.3,-3.53,-5.19,-5.07,0,*52
1514714678.92,61853,6.81,72734.0,-3.55,-5.11,-5.11,0,*5A
1514714680.18,61854,6.81,72726.8,-3.57,-5.23,-5.23,0,*5F
1514714681.46,61855,6.81,72728.0,-3.55,-5.19,-5.11,0,*54
1514714682.71,61856,6.81,72732.5,-3.57,-5.15,-5.11,0,*59
1514714683.92,61857,6.81,72730.0,-3.55,-4.99,-4.99,0,*5E
1514714685.2,61858,6.81,72728.3,-3.55,-5.11,-5.07,0,*56
1514714686.45,61859,6.81,72734.5,-3.57,-5.11,-5.07,0,*55
1514714687.73,61860,6.81,72732.8,-3.55,-5.11,-5.07,0,*5D
1514714688.98,61861,6.81,72730.8,-3.53,-5.11,-5.07,0,*5A
1514714690.23,61862,6.81,72730.8,-3.53,-5.19,-5.19,0,*5E
1514714691.49,61863,6.81,72732.8,-3.53,-5.27,-5.23,0,*5B
1514714692.74,61864,6.81,72730.0,-3.53,-5.19,-5.11,0,*50
1514714694.0,61865,6.81,72722.8,-3.53,-5.19,-5.19,0,*59
1514714695.25,61866,6.81,72722.0,-3.53,-5.19,-5.11,0,*52
1514714696.53,61867,6.81,72730.3,-3.51,-5.15,-5.07,0,*5A
1514714697.81,61868,6.81,72742.3,-3.51,-5.07,-5.15,0,*55
1514714699.04,61869,6.81,72738.8,-3.53,-5.35,-5.27,0,*56
1514714700.27,61870,6.81,72734.0,-3.51,-5.55,-5.47,0,*5C
1514714701.49,61871,6.81,72736.8,-3.53,-5.61,-5.47,0,*58
1514714702.69,61872,6.81,72744.3,-3.53,-5.39,-5.39,0,*5F
1514714703.89,61873,6.81,72750.0,-3.53,-5.35,-5.35,0,*5E
1514714705.09,61874,6.81,72750.5,-3.53,-5.47,-5.39,0,*50
1514714706.31,61875,6.81,72750.8,-3.51,-5.43,-5.35,0,*5B
1514714707.57,61876,6.81,72748.5,-3.53,-5.23,-5.19,0,*52
1514714708.83,61877,6.81,72750.0,-3.53,-5.27,-5.23,0,*5E
1514714710.08,61878,6.81,72750.0,-3.53,-5.19,-5.11,0,*5D
1514714711.36,61879,6.81,72746.5,-3.51,-5.19,-5.07,0,*59
1514714712.64,61880,6.81,72742.8,-3.51,-5.23,-5.23,0,*50
1514714713.89,61881,6.81,72740.0,-3.53,-5.11,-5.11,0,*53
1514714715.18,61882,6.81,72746.5,-3.51,-5.03,-5.03,0,*52
1514714716.46,61883,6.81,72754.8,-3.51,-5.07,-5.03,0,*57
1514714717.68,61884,6.81,72758.5,-3.51,-5.47,-5.47,0,*54
1514714718.97,61885,6.81,72754.3,-3.51,-5.85,-5.85,0,*55
1514714720.24,61886,6.81,72756.8,-3.51,-5.81,-5.81,0,*56
1514714721.51,61887,6.81,72756.3,-3.51,-5.73,-5.69,0,*5C
1514714722.78,61888,6.81,72754.3,-3.51,-5.73,-5.61,0,*5B
1514714724.03,61889,6.81,72756.3,-3.51,-5.61,-5.47,0,*5D
1514714725.23,61890,6.81,72752.0,-3.53,-5.47,-5.39,0,*5A
1514714726.44,61891,6.81,72750.3,-3.53,-5.51,-5.47,0,*55
1514714727.63,61892,6.81,72748.3,-3.53,-5.39,-5.47,0,*58
1514714728.91,61893,6.81,72742.5,-3.51,-5.69,-5.69,0,*52
1514714730.14,61894,6.81,72740.8,-3.51,-5.55,-5.43,0,*52
1514714731.36,61895,6.81,72742.5,-3.51,-5.47,-5.47,0,*54
1514714732.57,61896,6.81,72746.8,-3.53,-5.47,-5.39,0,*5C
1514714733.8,61897,6.81,72746.0,-3.53,-5.39,-5.27,0,*5B
1514714735.02,61898,6.81,72748.5,-3.53,-5.61,-5.51,0,*58
1514714736.3,61899,6.81,72744.8,-3.51,-5.85,-5.81,0,*5C
1514714737.55,61900,6.81,72738.5,-3.53,-5.73,-5.65,0,*5C
1514714738.8,61901,6.81,72734.0,-3.53,-5.73,-5.61,0,*59
1514714740.05,61902,6.81,72728.8,-3.53,-5.61,-5.61,0,*59
1514714741.29,61903,6.81,72728.0,-3.53,-5.73,-5.65,0,*5F
1514714742.55,61904,6.81,72724.8,-3.55,-5.39,-5.27,0,*56
1514714743.82,61905,6.81,72726.0,-3.55,-5.11,-5.07,0,*5F
1514714745.07,61906,6.81,72726.3,-3.55,-5.07,-4.99,0,*5D
1514714746.35,61907,6.81,72724.3,-3.51,-5.07,-5.03,0,*5A
1514714747.63,61908,6.81,72728.3,-3.51,-5.15,-5.03,0,*56
1514714748.91,61909,6.81,72726.8,-3.51,-5.07,-4.93,0,*5C
1514714750.13,61910,6.81,72732.3,-3.53,-5.11,-4.99,0,*5B
1514714751.34,61911,6.81,72730.3,-3.53,-4.99,-4.93,0,*51
1514714752.61,61912,6.81,72730.5,-3.51,-4.93,-4.93,0,*5A
1514714753.83,61913,6.81,72730.8,-3.53,-5.07,-4.99,0,*5F
1514714755.12,61914,6.81,72732.3,-3.51,-5.03,-5.03,0,*5C
1514714756.4,61915,6.81,72734.5,-3.51,-5.03,-5.03,0,*5D
1514714757.67,61916,6.81,72736.0,-3.51,-4.81,-4.81,0,*5E
1514714758.89,61917,6.81,72740.5,-3.49,-4.69,-4.65,0,*5A
1514714760.11,61918,6.81,72740.0,-3.47,-4.65,-4.61,0,*53
1514714761.33,61919,6.81,72736.0,-3.47,-4.65,-4.61,0,*52
1514714762.59,61920,6.81,72734.8,-3.47,-4.73,-4.73,0,*5C
1514714763.8,61921,6.81,72736.8,-3.47,-4.99,-4.99,0,*5D
1514714765.05,61922,6.81,72734.0,-3.45,-5.07,-4.89,0,*5B
1514714766.26,61923,6.81,72738.8,-3.45,-4.99,-4.89,0,*5C
1514714767.51,61924,6.81,72738.3,-3.45,-4.89,-4.89,0,*5A
1514714768.74,61925,6.81,72736.0,-3.45,-4.85,-4.73,0,*52
1514714769.98,61926,6.81,72742.0,-3.45,-4.85,-4.73,0,*51
1514714771.25,61927,6.81,72738.5,-3.43,-4.81,-4.73,0,*52
1514714772.51,61928,6.81,72742.3,-3.43,-4.93,-4.81,0,*53
1514714773.78,61929,6.81,72746.3,-3.43,-4.73,-4.69,0,*5A
1514714775.04,61930,6.81,72746.3,-3.43,-4.69,-4.73,0,*52
1514714776.28,61931,6.81,72744.5,-3.43,-4.69,-4.61,0,*50
1514714777.54,61932,6.81,72746.3,-3.43,-4.93,-4.81,0,*58
1514714778.81,61933,6.81,72748.8,-3.43,-4.93,-4.85,0,*5D
1514714780.02,61934,6.81,72748.3,-3.39,-4.77,-4.65,0,*53
1514714781.24,61935,6.81,72748.3,-3.39,-4.69,-4.65,0,*5D
1514714782.48,61936,6.81,72754.3,-3.39,-4.93,-4.81,0,*51
1514714783.72,61937,6.81,72750.8,-3.39,-4.81,-4.69,0,*55
1514714784.96,61938,6.81,72750.5,-3.39,-4.77,-4.77,0,*5C
1514714786.23,61939,6.81,72752.3,-3.37,-4.89,-4.77,0,*52
1514714787.5,61940,6.81,72750.8,-3.37,-4.93,-4.81,0,*5E
1514714788.76,61941,6.81,72752.3,-3.35,-5.03,-5.03,0,*5E
1514714790.02,61942,6.81,72754.5,-3.35,-5.07,-5.07,0,*5D
1514714791.3,61943,6.81,72758.0,-3.37,-5.19,-5.19,0,*5E
1514714792.58,61944,6.81,72758.5,-3.37,-5.19,-5.07,0,*56
1514714793.84,61945,6.81,72756.5,-3.35,-5.27,-5.19,0,*57
1514714795.09,61946,6.81,72758.8,-3.37,-5.61,-5.55,0,*5C
1514714796.33,61947,6.81,72752.0,-3.39,-5.73,-5.73,0,*54
1514714797.61,61948,6.81,72748.5,-3.37,-5.81,-5.69,0,*53
1514714798.8,61949,6.81,72746.0,-3.39,-6.01,-5.97,0,*56
1514714800.03,61950,6.81,72738.3,-3.39,-5.97,-5.89,0,*5D
1514714801.25,61951,6.81,72736.3,-3.43,-5.47,-5.35,0,*5B
1514714802.47,61952,6.81,72732.5,-3.43,-5.51,-5.39,0,*53
1514714803.72,61953,6.81,72738.8,-3.43,-5.39,-5.27,0,*53
1514714805.0,61954,6.81,72740.5,-3.43,-5.07,-5.07,0,*5B
1514714806.28,61955,6.81,72736.3,-3.43,-5.15,-5.15,0,*5A
1514714807.56,61956,6.81,72740.8,-3.37,-5.19,-5.07,0,*55
1514714808.81,61957,6.81,72734.8,-3.39,-5.31,-5.23,0,*56
1514714810.02,61958,6.81,72736.0,-3.39,-5.55,-5.47,0,*59
1514714811.25,61959,6.81,72736.3,-3.39,-5.73,-5.73,0,*5B
1514714812.49,61960,6.81,72734.5,-3.39,-5.73,-5.73,0,*51
1514714813.69,61961,6.81,72738.8,-3.39,-5.55,-5.47,0,*53
1514714814.92,61962,6.81,72732.3,-3.45,-5.65,-5.55,0,*5B
1514714816.17,61963,6.81,72736.8,-3.45,-5.69,-5.69,0,*59
1514714817.41,61964,6.81,72736.8,-3.45,-5.81,-5.81,0,*5E
1514714818.66,61965,6.81,72730.5,-3.45,-5.81,-5.81,0,*5F
1514714819.85,61966,6.81,72722.5,-3.45,-5.97,-5.97,0,*5C
1514714821.09,61967,6.81,72724.5,-3.45,-5.89,-5.77,0,*5C
1514714822.32,61968,6.81,72720.0,-3.47,-5.55,-5.51,0,*54
1514714823.57,61969,6.81,72720.8,-3.49,-5.77,-5.69,0,*50
1514714824.84,61970,6.81,72722.5,-3.47,-5.69,-5.65,0,*55
1514714826.11,61971,6.81,72718.5,-3.47,-5.77,-5.69,0,*57
1514714827.35,61972,6.81,72730.0,-3.47,-5.65,-5.55,0,*58
1514714828.63,61973,6.81,72728.5,-3.47,-5.69,-5.69,0,*5A
1514714829.9,61974,6.81,72728.5,-3.47,-5.27,-5.31,0,*5A
1514714831.17,61975,6.81,72730.8,-3.47,-5.11,-5.03,0,*5F
1514714832.44,61976,6.81,72734.5,-3.47,-5.11,-5.03,0,*5C
1514714833.69,61977,6.81,72738.5,-3.45,-5.03,-5.03,0,*5C
1514714834.9,61978,6.81,72736.5,-3.47,-5.39,-5.39,0,*51
1514714836.12,61979,6.81,72738.8,-3.47,-5.51,-5.43,0,*53
1514714837.39,61980,6.81,72742.0,-3.47,-5.27,-5.15,0,*57
1514714838.62,61981,6.81,72742.3,-3.47,-5.55,-5.51,0,*53
1514714839.89,61982,6.81,72736.5,-3.47,-5.31,-5.19,0,*5E
1514714841.11,61983,6.81,72740.8,-3.47,-5.55,-5.43,0,*52
1514714842.39,61984,6.81,72744.8,-3.47,-5.27,-5.27,0,*52
1514714843.66,61985,6.81,72744.8,-3.47,-5.03,-5.03,0,*53
1514714844.91,61986,6.81,72742.8,-3.45,-5.15,-5.11,0,*56
1514714846.16,61987,6.81,72742.3,-3.45,-5.19,-5.19,0,*53
1514714847.41,61988,6.81,72740.3,-3.45,-5.27,-5.31,0,*5B
1514714848.65,61989,6.81,72742.8,-3.47,-5.39,-5.31,0,*57
1514714849.88,61990,6.81,72748.3,-3.47,-5.55,-5.51,0,*53
1514714851.13,61991,6.81,72750.5,-3.47,-5.55,-5.65,0,*55
1514714852.35,61992,6.81,72748.0,-3.47,-5.51,-5.39,0,*5B
1514714853.56,61993,6.81,72744.8,-3.47,-5.43,-5.39,0,*59
1514714854.79,61994,6.81,72750.8,-3.47,-5.55,-5.55,0,*53
1514714856.03,61995,6.81,72748.3,-3.47,-5.43,-5.31,0,*57
1514714857.3,61996,6.81,72748.8,-3.47,-5.11,-5.15,0,*55
1514714858.57,61997,6.81,72752.5,-3.47,-5.03,-5.03,0,*50
1514714859.85,61998,6.81,72752.8,-3.47,-5.31,-5.27,0,*58
1514714861.1,61999,6.81,72750.8,-3.47,-5.39,-5.31,0,*56
1514714862.32,62000,6.81,72750.5,-3.47,-5.51,-5.51,0,*54
1514714863.59,62001,6.81,72746.0,-3.47,-5.11,-5.03,0,*56
1514714864.86,62002,6.81,72744.8,-3.47,-5.15,-5.03,0,*51
1514714866.11,62003,6.81,72748.5,-3.47,-5.03,-4.99,0,*55
1514714867.38,62004,6.81,72750.3,-3.47,-5.03,-4.89,0,*53
1514714868.64,62005,6.81,72744.5,-3.43,-4.93,-4.85,0,*52
1514714869.86,62006,6.81,72748.3,-3.45,-4.99,-4.89,0,*51
1514714871.12,62007,6.81,72740.3,-3.43,-4.81,-4.73,0,*5A
1514714872.39,62008,6.81,72744.0,-3.43,-4.81,-4.73,0,*55
1514714873.66,62009,6.81,72744.0,-3.43,-4.85,-4.85,0,*59
1514714874.92,62010,6.81,72742.8,-3.43,-4.85,-4.73,0,*58
1514714876.12,62011,6.81,72742.8,-3.39,-4.65,-4.57,0,*5C
1514714877.33,62012,6.81,72742.5,-3.39,-4.69,-4.65,0,*52
1514714878.57,62013,6.81,72744.0,-3.39,-4.81,-4.77,0,*56
1514714879.85,62014,6.81,72750.0,-3.37,-4.89,-4.89,0,*56
1514714881.12,62015,6.81,72748.8,-3.37,-4.81,-4.77,0,*5E
1514714882.39,62016,6.81,72748.0,-3.37,-4.89,-4.69,0,*5A
1514714883.66,62017,6.81,72748.5,-3.37,-4.81,-4.69,0,*53
1514714884.93,62018,6.81,72750.8,-3.37,-4.81,-4.73,0,*57
1514714886.18,62019,6.81,72748.3,-3.35,-4.85,-4.73,0,*50
1514714887.43,62020,6.81,72746.8,-3.35,-5.19,-5.15,0,*5F
1514714888.69,62021,6.81,72748.3,-3.35,-5.19,-5.07,0,*5D
1514714889.95,62022,6.81,72754.0,-3.35,-5.27,-5.15,0,*50
1514714891.17,62023,6.81,72752.8,-3.35,-5.43,-5.31,0,*55
1514714892.45,62024,6.81,72752.0,-3.37,-5.61,-5.61,0,*55
1514714893.7,62025,6.81,72750.5,-3.37,-5.61,-5.47,0,*50
1514714894.92,62026,6.81,72746.3,-3.39,-5.43,-5.31,0,*5C
1514714896.17,62027,6.81,72746.5,-3.37,-5.35,-5.23,0,*51
1514714897.4,62028,6.81,72746.0,-3.39,-5.35,-5.31,0,*53
1514714898.65,62029,6.81,72740.3,-3.37,-5.61,-5.47,0,*5C
1514714899.86,62030,6.81,72746.3,-3.39,-5.61,-5.43,0,*5E
1514714901.13,62031,6.81,72742.8,-3.37,-5.73,-5.73,0,*51
1514714902.38,62032,6.81,72744.8,-3.39,-5.81,-5.73,0,*51
1514714903.6,62033,6.81,72744.5,-3.37,-5.55,-5.43,0,*54
1514714904.8,62034,6.81,72740.3,-3.39,-5.35,-5.35,0,*5A
1514714906.02,62035,6.81,72734.8,-3.39,-5.61,-5.55,0,*5C
1514714907.3,62036,6.81,72736.5,-3.43,-5.65,-5.61,0,*51
1514714908.55,62037,6.81,72738.8,-3.43,-5.39,-5.27,0,*5B
1514714909.82,62038,6.81,72740.5,-3.43,-5.65,-5.65,0,*5B
1514714911.07,62039,6.81,72736.8,-3.43,-5.93,-6.01,0,*52
1514714912.29,62040,6.81,72738.3,-3.43,-6.13,-6.05,0,*53
1514714913.51,62041,6.81,72738.0,-3.45,-5.97,-5.89,0,*5C
1514714914.73,62042,6.81,72742.0,-3.45,-6.19,-6.05,0,*5D
1514714915.97,62043,6.81,72742.3,-3.45,-5.81,-5.81,0,*51
1514714917.23,62044,6.81,72742.8,-3.45,-5.93,-5.89,0,*5D
1514714918.47,62045,6.81,72736.8,-3.47,-5.97,-5.93,0,*51
1514714919.7,62046,6.81,72728.8,-3.49,-5.97,-5.93,0,*5C
1514714920.92,62047,6.81,72734.3,-3.47,-5.55,-5.55,0,*57
1514714922.18,62048,6.81,72728.5,-3.49,-5.31,-5.31,0,*56
1514714923.44,62049,6.81,72726.0,-3.49,-5.31,-5.23,0,*54
1514714924.68,62050,6.81,72730.8,-3.47,-5.39,-5.31,0,*59